TimeCDT,TemperatureF,Dew PointF,Humidity,Sea Level PressureIn,VisibilityMPH,Wind Direction,Wind SpeedMPH,Gust SpeedMPH,PrecipitationIn,Events,Conditions,WindDirDegrees,DateUTC
12:53 AM,82.9,66.0,56,29.97,10.0,SSW,5.8,-,0.00,Rain,Light Rain,210,2013-09-08 05:53:00
1:53 AM,82.9,66.0,56,29.96,10.0,SSW,3.5,-,0.00,,Clear,200,2013-09-08 06:53:00
2:53 AM,77.0,66.0,69,29.94,10.0,Calm,Calm,-,N/A,,Clear,0,2013-09-08 07:53:00
3:53 AM,77.0,66.0,69,29.96,10.0,Calm,Calm,-,0.00,Rain,Light Rain,0,2013-09-08 08:53:00
4:53 AM,77.0,66.0,69,29.95,10.0,Calm,Calm,-,0.00,,Clear,0,2013-09-08 09:53:00
5:53 AM,78.1,66.0,66,29.95,10.0,West,6.9,-,N/A,,Clear,260,2013-09-08 10:53:00
6:53 AM,75.9,66.0,71,29.97,10.0,West,6.9,-,N/A,,Clear,260,2013-09-08 11:53:00
7:53 AM,78.1,66.0,66,29.98,10.0,West,5.8,-,N/A,,Clear,280,2013-09-08 12:53:00
8:53 AM,84.0,66.9,56,29.98,10.0,West,6.9,-,N/A,,Clear,280,2013-09-08 13:53:00
9:53 AM,88.0,66.9,49,29.99,10.0,West,10.4,-,N/A,,Clear,270,2013-09-08 14:53:00
10:53 AM,91.0,64.9,42,29.99,10.0,West,8.1,-,0.00,,Clear,280,2013-09-08 15:53:00
11:53 AM,93.9,64.0,37,29.98,10.0,Variable,3.5,-,N/A,,Clear,0,2013-09-08 16:53:00
12:53 PM,96.1,63.0,33,29.96,10.0,Calm,Calm,-,N/A,,Scattered Clouds,0,2013-09-08 17:53:00
1:53 PM,98.1,61.0,29,29.94,10.0,Calm,Calm,-,N/A,,Scattered Clouds,0,2013-09-08 18:53:00
2:53 PM,100.9,62.1,28,29.91,10.0,Variable,6.9,-,N/A,,Mostly Cloudy,0,2013-09-08 19:53:00
3:53 PM,97.0,62.1,31,29.90,10.0,Variable,5.8,-,N/A,,Clear,0,2013-09-08 20:53:00
4:53 PM,99.0,62.1,30,29.88,10.0,East,9.2,-,N/A,,Mostly Cloudy,100,2013-09-08 21:53:00
5:53 PM,97.0,63.0,32,29.88,10.0,SE,8.1,-,N/A,,Clear,130,2013-09-08 22:53:00
6:53 PM,93.9,62.1,35,29.89,10.0,SE,4.6,-,N/A,,Clear,140,2013-09-08 23:53:00
7:53 PM,91.0,63.0,39,29.90,10.0,Calm,Calm,-,N/A,,Clear,0,2013-09-09 00:53:00
8:53 PM,84.9,64.0,49,29.92,10.0,Calm,Calm,-,N/A,,Clear,0,2013-09-09 01:53:00
9:53 PM,84.0,64.9,53,29.94,10.0,South,3.5,-,N/A,,Clear,190,2013-09-09 02:53:00
10:53 PM,84.9,63.0,48,29.95,10.0,South,4.6,-,N/A,,Clear,190,2013-09-09 03:53:00
11:53 PM,82.9,64.0,53,29.95,10.0,South,4.6,-,N/A,,Clear,190,2013-09-09 04:53:00